Regional Weather Roundup
Issued by NWS

Home | Current Version | Previous Version | Text Only | Print | Product List | Glossary Off
Versions: 1 2 3 4 5 6 7 8 9 10 11 12 13 14 15 16 17 18 19 20 21 22 23 24 25 26 27 28

000
ASUS45 KBOI 272010
RWRID

IDAHO REGIONAL WEATHER ROUNDUP
NATIONAL WEATHER SERVICE BOISE ID
200 PM MDT SAT AUG 27 2016

NOTE: "FAIR" INDICATES FEW OR NO CLOUDS BELOW 12000 FEET
WITH NO SIGNIFICANT WEATHER AND/OR OBSTRUCTIONS TO VISIBILITY

IDZ012-014-272100-
SOUTHWEST IDAHO


CITY           SKY/WX    TMP DP  RH WIND       PRES   REMARKS
BOISE          MOSUNNY   85  32  15 N6        29.93F
CALDWELL       MOSUNNY   85  40  20 NE5       29.91F
MOUNTAIN HOME  SUNNY     86  31  13 W6        29.93F
$$

IDZ016-017-272100-
SOUTHCENTRAL IDAHO


CITY           SKY/WX    TMP DP  RH WIND       PRES   REMARKS
BURLEY         SUNNY     80  36  20 VRB7      29.99F
JEROME         SUNNY     81  34  18 NW5       30.00F
TWIN FALLS     SUNNY     83  34  17 NW9       30.00F
$$

IDZ019>023-272100-
SOUTHEAST IDAHO


CITY           SKY/WX    TMP DP  RH WIND       PRES   REMARKS
IDAHO FALLS    CLOUDY    77  31  18 SW15G23   30.04F
POCATELLO      SUNNY     82  28  14 W20       30.03F
REXBURG        SUNNY     76  31  19 S17G24    30.04F
$$

IDZ006-010-011-018-031-032-272100-
CENTRAL IDAHO MOUNTAINS


CITY           SKY/WX    TMP DP  RH WIND       PRES   REMARKS
MCCALL         SUNNY     76  30  18 S14G23    30.02F
HAILEY         SUNNY     79  36  21 S12       30.05F
STANLEY          N/A     74  23  15 MISG      30.10S
SALMON         SUNNY     73  36  25 NW7       29.90F
CHALLIS        SUNNY     80  29  15 SE9       29.96F
$$

IDZ002-004-006-007-026-272100-
NORTHERN IDAHO


CITY           SKY/WX    TMP DP  RH WIND       PRES   REMARKS
LEWISTON       SUNNY     89  41  18 MISG      29.75F
LOWELL           N/A     85  47  26 N3        29.77F
COEUR D`ALENE  PTSUNNY   84  43  23 S22       29.73S
MULLAN PASS    SUNNY     65  38  36 SW9G22    29.97S
$$




USA.gov is the U.S. government's official web portal to all federal, state and local government web resources and services.